ELY441 LLBG-LGAV

Flight info

Callsign ELY441
Flight time 1h 43m
Altitude 40000
Route SUVAS N128 OTHON DCT USINI UL995 VARIX
Aircraft B789/H-SDE1E2E3FGHIJ2J3J4J5M1RWXY/LB1D1

Departure

Time 2026-05-07 12:12
Airport Ben Gurion International Airport (LLBG)

Arrival

Time 2026-05-07 13:55
Airport Athens Eleftherios Venizelos International Airport (LGAV)
Time Latitude Longitude Altitude Speed Heading
2026-05-07 11:33 32.00289 34.87589 125 ft 0 kts
2026-05-07 11:33 32.00288 34.87589 125 ft 0 kts
2026-05-07 11:40 32.00287 34.87589 125 ft 0 kts
2026-05-07 11:42 32.00287 34.87588 125 ft 0 kts
2026-05-07 11:42 32.00287 34.87589 125 ft 0 kts
2026-05-07 11:43 32.00286 34.87588 125 ft 0 kts
2026-05-07 11:45 32.00285 34.87588 125 ft 0 kts
2026-05-07 11:47 32.00284 34.87588 125 ft 0 kts
2026-05-07 11:51 32.00283 34.87588 125 ft 0 kts
2026-05-07 11:58 32.00260 34.87586 123 ft 4 kts
2026-05-07 11:58 32.00234 34.87582 120 ft 4 kts
2026-05-07 11:58 32.00212 34.87586 120 ft 3 kts 327°
2026-05-07 11:58 32.00194 34.87600 120 ft 4 kts 331°
2026-05-07 11:59 32.00171 34.87611 120 ft 4 kts 356°
2026-05-07 11:59 32.00151 34.87607 120 ft 2 kts 30°
2026-05-07 11:59 32.00129 34.87591 120 ft 4 kts 30°
2026-05-07 11:59 32.00105 34.87576 120 ft 4 kts 31°
2026-05-07 12:00 32.00094 34.87568 125 ft 1 kts 31°
2026-05-07 12:04 32.00107 34.87577 121 ft 5 kts 31°
2026-05-07 12:04 32.00187 34.87634 122 ft 21 kts 31°
2026-05-07 12:05 32.00302 34.87715 122 ft 12 kts 31°
2026-05-07 12:05 32.00375 34.87767 122 ft 13 kts 31°
2026-05-07 12:05 32.00453 34.87823 120 ft 14 kts 31°
2026-05-07 12:05 32.00535 34.87882 122 ft 14 kts 31°
2026-05-07 12:06 32.00599 34.87927 120 ft 9 kts 31°
2026-05-07 12:06 32.00632 34.87950 121 ft 1 kts 31°
2026-05-07 12:06 32.00642 34.87958 121 ft 3 kts 31°
2026-05-07 12:06 32.00665 34.87974 121 ft 5 kts 31°
2026-05-07 12:07 32.00714 34.88009 121 ft 13 kts 31°
2026-05-07 12:07 32.00819 34.88085 122 ft 20 kts 31°
2026-05-07 12:07 32.00940 34.88174 123 ft 20 kts 32°
2026-05-07 12:07 32.01062 34.88262 121 ft 20 kts 31°
2026-05-07 12:08 32.01183 34.88348 124 ft 19 kts 32°
2026-05-07 12:08 32.01279 34.88424 122 ft 17 kts 37°
2026-05-07 12:08 32.01362 34.88526 121 ft 18 kts 52°
2026-05-07 12:08 32.01433 34.88646 121 ft 18 kts 60°
2026-05-07 12:09 32.01483 34.88786 122 ft 19 kts 73°
2026-05-07 12:09 32.01512 34.88943 124 ft 20 kts 80°
2026-05-07 12:09 32.01536 34.89100 123 ft 16 kts 76°
2026-05-07 12:09 32.01603 34.89162 123 ft 10 kts 352°
2026-05-07 12:10 32.01696 34.89145 120 ft 12 kts 351°
2026-05-07 12:10 32.01745 34.89103 120 ft 6 kts 284°
2026-05-07 12:10 32.01743 34.89075 121 ft 2 kts 262°
2026-05-07 12:10 32.01740 34.89055 122 ft 6 kts 261°
2026-05-07 12:11 32.01717 34.88898 125 ft 43 kts 259°
2026-05-07 12:11 32.01623 34.88294 126 ft 106 kts 259°
2026-05-07 12:11 32.01457 34.87207 142 ft 160 kts 263°
2026-05-07 12:11 32.01200 34.85912 636 ft 164 kts 261°
2026-05-07 12:12 32.00916 34.84553 1190 ft 181 kts 261°
2026-05-07 12:12 32.00619 34.83037 1861 ft 193 kts 263°
2026-05-07 12:12 32.00334 34.81440 2522 ft 211 kts 263°
2026-05-07 12:12 31.99998 34.79687 3082 ft 232 kts 259°
2026-05-07 12:13 31.99610 34.77809 3844 ft 240 kts 257°
2026-05-07 12:13 31.99228 34.75896 4531 ft 235 kts 261°
2026-05-07 12:13 31.99410 34.74014 5517 ft 234 kts 287°
2026-05-07 12:13 31.99961 34.72195 6390 ft 239 kts 290°
2026-05-07 12:14 32.00583 34.70254 6745 ft 269 kts 290°
2026-05-07 12:14 32.01247 34.68157 7607 ft 278 kts 290°
2026-05-07 12:14 32.01929 34.65960 8020 ft 287 kts 289°
2026-05-07 12:14 32.02572 34.63756 8071 ft 281 kts 282°
2026-05-07 12:15 32.02721 34.61506 8569 ft 276 kts 273°
2026-05-07 12:15 32.02868 34.59222 9064 ft 284 kts 274°
2026-05-07 12:15 32.03016 34.56879 9575 ft 285 kts 274°
2026-05-07 12:15 32.03137 34.54556 10076 ft 290 kts 273°
2026-05-07 12:16 32.03256 34.52198 10544 ft 283 kts 274°
2026-05-07 12:16 32.03381 34.49852 11021 ft 293 kts 274°
2026-05-07 12:16 32.03513 34.47373 11446 ft 314 kts 274°
2026-05-07 12:16 32.03655 34.44692 11701 ft 340 kts 274°
2026-05-07 12:17 32.03810 34.41857 12385 ft 349 kts 274°
2026-05-07 12:17 32.03979 34.39011 13410 ft 349 kts 274°
2026-05-07 12:17 32.04149 34.36102 14030 ft 359 kts 274°
2026-05-07 12:17 32.04313 34.33183 14958 ft 357 kts 274°
2026-05-07 12:18 32.04479 34.30245 15636 ft 364 kts 275°
2026-05-07 12:18 32.04657 34.27279 16076 ft 362 kts 277°
2026-05-07 12:18 32.05422 34.24425 16597 ft 367 kts 299°
2026-05-07 12:18 32.06858 34.21897 17141 ft 375 kts 307°
2026-05-07 12:19 32.08429 34.19487 17916 ft 376 kts 307°
2026-05-07 12:19 32.09967 34.16967 18582 ft 380 kts 304°
2026-05-07 12:19 32.11442 34.14370 19186 ft 383 kts 304°
2026-05-07 12:19 32.12950 34.11765 19786 ft 385 kts 305°
2026-05-07 12:20 32.14500 34.09175 20357 ft 388 kts 305°
2026-05-07 12:20 32.16055 34.06565 20935 ft 390 kts 305°
2026-05-07 12:20 32.17606 34.03921 21471 ft 393 kts 304°
2026-05-07 12:20 32.19173 34.01247 22006 ft 396 kts 304°
2026-05-07 12:21 32.20745 33.98577 22521 ft 398 kts 304°
2026-05-07 12:21 32.22331 33.95886 23039 ft 400 kts 304°
2026-05-07 12:21 32.23922 33.93178 23606 ft 401 kts 304°
2026-05-07 12:21 32.25517 33.90459 24018 ft 403 kts 304°
2026-05-07 12:22 32.27125 33.87718 24402 ft 405 kts 304°
2026-05-07 12:22 32.28734 33.84973 24777 ft 407 kts 304°
2026-05-07 12:22 32.30352 33.82213 25145 ft 410 kts 304°
2026-05-07 12:22 32.31976 33.79438 25520 ft 412 kts 304°
2026-05-07 12:23 32.33589 33.76681 25879 ft 413 kts 304°
2026-05-07 12:23 32.35231 33.73872 26255 ft 415 kts 303°
2026-05-07 12:23 32.36877 33.71054 26611 ft 418 kts 303°
2026-05-07 12:23 32.38531 33.68220 26972 ft 420 kts 303°
2026-05-07 12:24 32.40202 33.65355 27337 ft 422 kts 303°
2026-05-07 12:24 32.41871 33.62491 27698 ft 424 kts 303°
2026-05-07 12:24 32.43548 33.59612 28064 ft 426 kts 303°
2026-05-07 12:24 32.45236 33.56711 28429 ft 428 kts 303°
2026-05-07 12:25 32.46928 33.53801 28794 ft 430 kts 303°
2026-05-07 12:25 32.48630 33.50872 29156 ft 433 kts 303°
2026-05-07 12:25 32.50344 33.47919 29524 ft 435 kts 303°
2026-05-07 12:25 32.52059 33.44962 29885 ft 437 kts 303°
2026-05-07 12:26 32.53762 33.42025 30230 ft 440 kts 302°
2026-05-07 12:26 32.55497 33.39029 30541 ft 442 kts 303°
2026-05-07 12:26 32.57238 33.36022 30861 ft 444 kts 303°
2026-05-07 12:26 32.58989 33.32993 31171 ft 446 kts 303°
2026-05-07 12:27 32.60749 33.29947 31482 ft 448 kts 303°
2026-05-07 12:27 32.62506 33.26904 31785 ft 450 kts 303°
2026-05-07 12:27 32.64275 33.23838 32103 ft 452 kts 303°
2026-05-07 12:27 32.66055 33.20749 32405 ft 454 kts 303°
2026-05-07 12:28 32.67839 33.17652 32706 ft 456 kts 303°
2026-05-07 12:28 32.69633 33.14534 33029 ft 457 kts 303°
2026-05-07 12:28 32.71421 33.11424 33472 ft 456 kts 303°
2026-05-07 12:28 32.73204 33.08323 33949 ft 454 kts 303°
2026-05-07 12:29 32.74979 33.05230 34338 ft 453 kts 303°
2026-05-07 12:29 32.76753 33.02136 34648 ft 453 kts 303°
2026-05-07 12:29 32.78529 32.99036 34943 ft 454 kts 303°
2026-05-07 12:29 32.80309 32.95928 35255 ft 454 kts 303°
2026-05-07 12:30 32.82066 32.92857 35551 ft 455 kts 303°
2026-05-07 12:30 32.83841 32.89751 35850 ft 455 kts 303°
2026-05-07 12:30 32.85625 32.86628 36160 ft 455 kts 303°
2026-05-07 12:30 32.87400 32.83518 36468 ft 455 kts 303°
2026-05-07 12:31 32.89178 32.80400 36749 ft 456 kts 303°
2026-05-07 12:31 32.90362 32.78321 36928 ft 456 kts 303°
2026-05-07 12:31 32.92150 32.75183 37213 ft 457 kts 303°
2026-05-07 12:31 32.93934 32.72046 37497 ft 457 kts 303°
2026-05-07 12:32 32.95716 32.68912 37779 ft 457 kts 303°
2026-05-07 12:32 32.97498 32.65774 38054 ft 458 kts 303°
2026-05-07 12:32 32.99281 32.62632 38330 ft 458 kts 303°
2026-05-07 12:32 33.01067 32.59482 38647 ft 458 kts 303°
2026-05-07 12:33 33.04630 32.53191 39131 ft 457 kts 303°
2026-05-07 12:33 33.06388 32.50084 39356 ft 457 kts 303°
2026-05-07 12:33 33.08163 32.46941 39595 ft 457 kts 303°
2026-05-07 12:34 33.09937 32.43799 39827 ft 457 kts 303°
2026-05-07 12:34 33.11716 32.40646 39991 ft 458 kts 303°
2026-05-07 12:34 33.13495 32.37490 40137 ft 460 kts 303°
2026-05-07 12:34 33.15287 32.34308 40126 ft 463 kts 303°
2026-05-07 12:35 33.18852 32.27970 40124 ft 456 kts 303°
2026-05-07 12:35 33.22380 32.21687 40124 ft 455 kts 303°
2026-05-07 12:36 33.25904 32.15401 40130 ft 456 kts 303°
2026-05-07 12:36 33.29420 32.09118 40130 ft 457 kts 303°
2026-05-07 12:37 33.32944 32.02809 40130 ft 455 kts 303°
2026-05-07 12:37 33.36448 31.96526 40128 ft 453 kts 303°
2026-05-07 12:38 33.39957 31.90222 40129 ft 453 kts 303°
2026-05-07 12:38 33.43429 31.83976 40128 ft 453 kts 303°
2026-05-07 12:39 33.46918 31.77688 40130 ft 452 kts 304°
2026-05-07 12:39 33.50459 31.71495 40132 ft 451 kts 304°
2026-05-07 12:40 33.53992 31.65268 40134 ft 452 kts 304°
2026-05-07 12:40 33.57539 31.59011 40141 ft 454 kts 304°
2026-05-07 12:41 33.61093 31.52736 40142 ft 454 kts 304°
2026-05-07 12:41 33.64623 31.46485 40146 ft 451 kts 304°
2026-05-07 12:42 33.68112 31.40303 40142 ft 450 kts 304°
2026-05-07 12:42 33.71621 31.34069 40141 ft 450 kts 304°
2026-05-07 12:43 33.75125 31.27838 40144 ft 450 kts 304°
2026-05-07 12:43 33.78630 31.21591 40136 ft 449 kts 304°
2026-05-07 12:44 33.82113 31.15375 40137 ft 448 kts 304°
2026-05-07 12:44 33.85603 31.09136 40139 ft 449 kts 304°
2026-05-07 12:45 33.89094 31.02882 40140 ft 450 kts 304°
2026-05-07 12:45 33.92586 30.96617 40142 ft 451 kts 304°
2026-05-07 12:46 33.96041 30.90408 40142 ft 446 kts 304°
2026-05-07 12:46 33.99485 30.84206 40139 ft 445 kts 304°
2026-05-07 12:47 34.02937 30.77979 40141 ft 446 kts 304°
2026-05-07 12:47 34.06379 30.71761 40141 ft 446 kts 304°
2026-05-07 12:48 34.09812 30.65548 40150 ft 446 kts 304°
2026-05-07 12:48 34.13257 30.59302 40151 ft 446 kts 304°
2026-05-07 12:49 34.16669 30.53105 40152 ft 446 kts 304°
2026-05-07 12:49 34.20106 30.46851 40156 ft 446 kts 304°
2026-05-07 12:50 34.23535 30.40602 40157 ft 446 kts 304°
2026-05-07 12:50 34.26947 30.34372 40154 ft 442 kts 305°
2026-05-07 12:51 34.30343 30.28163 40152 ft 441 kts 305°
2026-05-07 12:51 34.33708 30.21997 40152 ft 442 kts 304°
2026-05-07 12:52 34.37098 30.15777 40155 ft 443 kts 304°
2026-05-07 12:52 34.40490 30.09540 40156 ft 442 kts 305°
2026-05-07 12:53 34.43852 30.03349 40153 ft 438 kts 305°
2026-05-07 12:53 34.47618 29.97588 40165 ft 437 kts 315°
2026-05-07 12:54 34.51847 29.92339 40166 ft 438 kts 315°
2026-05-07 12:54 34.56118 29.87038 40166 ft 439 kts 315°
2026-05-07 12:55 34.60387 29.81725 40159 ft 438 kts 315°
2026-05-07 12:55 34.64596 29.76482 40154 ft 430 kts 315°
2026-05-07 12:56 34.68771 29.71274 40153 ft 431 kts 315°
2026-05-07 12:56 34.72961 29.66037 40159 ft 433 kts 315°
2026-05-07 12:57 34.77170 29.60769 40163 ft 434 kts 315°
2026-05-07 12:57 34.81373 29.55500 40166 ft 434 kts 315°
2026-05-07 12:58 34.85529 29.50283 40160 ft 429 kts 314°
2026-05-07 12:58 34.89667 29.45078 40155 ft 427 kts 314°
2026-05-07 12:59 34.93812 29.39858 40155 ft 429 kts 314°
2026-05-07 12:59 34.97963 29.34622 40158 ft 429 kts 314°
2026-05-07 13:00 35.02122 29.29369 40160 ft 430 kts 314°
2026-05-07 13:00 35.06273 29.24117 40155 ft 429 kts 314°
2026-05-07 13:01 35.10345 29.18956 40151 ft 422 kts 314°
2026-05-07 13:01 35.14423 29.13780 40150 ft 423 kts 314°
2026-05-07 13:02 35.18510 29.08585 40164 ft 425 kts 314°
2026-05-07 13:02 35.22634 29.03334 40162 ft 428 kts 314°
2026-05-07 13:03 35.26755 28.98079 40164 ft 427 kts 313°
2026-05-07 13:03 35.30857 28.92841 40153 ft 425 kts 313°
2026-05-07 13:04 35.34951 28.87603 40151 ft 424 kts 313°
2026-05-07 13:04 35.38998 28.82418 40147 ft 424 kts 313°
2026-05-07 13:05 35.43076 28.77186 40145 ft 424 kts 313°
2026-05-07 13:05 35.47152 28.71948 40144 ft 424 kts 313°
2026-05-07 13:06 35.51233 28.66694 40149 ft 424 kts 313°
2026-05-07 13:06 35.55335 28.61406 40159 ft 430 kts 313°
2026-05-07 13:07 35.59446 28.56098 40158 ft 430 kts 313°
2026-05-07 13:07 35.63558 28.50780 40160 ft 429 kts 313°
2026-05-07 13:08 35.67662 28.45463 40158 ft 428 kts 313°
2026-05-07 13:08 35.71761 28.40146 40153 ft 427 kts 313°
2026-05-07 13:09 35.75845 28.34837 40146 ft 427 kts 313°
2026-05-07 13:09 35.79906 28.29553 40143 ft 426 kts 313°
2026-05-07 13:10 35.83976 28.24246 40148 ft 426 kts 313°
2026-05-07 13:10 35.88066 28.18905 40159 ft 431 kts 313°
2026-05-07 13:11 35.92188 28.13514 40154 ft 431 kts 313°
2026-05-07 13:11 35.96273 28.08163 40152 ft 430 kts 313°
2026-05-07 13:12 36.00369 28.02788 40141 ft 427 kts 313°
2026-05-07 13:12 36.04436 27.97443 40132 ft 427 kts 313°
2026-05-07 13:13 36.08522 27.92065 40139 ft 429 kts 313°
2026-05-07 13:13 36.12583 27.86710 40139 ft 429 kts 313°
2026-05-07 13:14 36.16664 27.81320 40136 ft 428 kts 313°
2026-05-07 13:14 36.20760 27.75901 40136 ft 434 kts 313°
2026-05-07 13:15 36.24884 27.70438 40139 ft 433 kts 313°
2026-05-07 13:15 36.28962 27.65024 40138 ft 432 kts 313°
2026-05-07 13:16 36.33062 27.59575 40132 ft 432 kts 313°
2026-05-07 13:16 36.37159 27.54119 40134 ft 432 kts 313°
2026-05-07 13:17 36.41263 27.48644 40135 ft 432 kts 313°
2026-05-07 13:17 36.45341 27.43197 40131 ft 429 kts 312°
2026-05-07 13:18 36.49401 27.37762 40133 ft 429 kts 312°
2026-05-07 13:18 36.52778 27.33237 40141 ft 433 kts 312°
2026-05-07 13:19 36.56901 27.27702 40143 ft 435 kts 312°
2026-05-07 13:19 36.60992 27.22202 40144 ft 433 kts 312°
2026-05-07 13:20 36.65073 27.16705 40149 ft 432 kts 312°
2026-05-07 13:20 36.68518 27.10662 40171 ft 429 kts 297°
2026-05-07 13:21 36.70930 27.03875 40168 ft 431 kts 295°
2026-05-07 13:21 36.73331 26.96962 40165 ft 432 kts 295°
2026-05-07 13:22 36.75697 26.90125 40163 ft 432 kts 295°
2026-05-07 13:22 36.78067 26.83273 40158 ft 428 kts 294°
2026-05-07 13:23 36.80414 26.76463 40153 ft 427 kts 294°
2026-05-07 13:23 36.82762 26.69640 40152 ft 427 kts 294°
2026-05-07 13:24 36.85098 26.62839 40152 ft 428 kts 294°
2026-05-07 13:24 36.87445 26.55999 40149 ft 428 kts 294°
2026-05-07 13:25 36.89774 26.49189 40152 ft 426 kts 294°
2026-05-07 13:25 36.92089 26.42380 40150 ft 425 kts 294°
2026-05-07 13:26 36.94384 26.35625 39785 ft 419 kts 294°
2026-05-07 13:26 36.95523 26.32267 39483 ft 418 kts 294°
2026-05-07 13:26 36.96654 26.28925 39192 ft 416 kts 294°
2026-05-07 13:27 36.97779 26.25601 38892 ft 415 kts 294°
2026-05-07 13:27 36.98895 26.22303 38674 ft 410 kts 294°
2026-05-07 13:27 37.00013 26.19021 38188 ft 411 kts 294°
2026-05-07 13:27 37.01137 26.15721 37601 ft 414 kts 294°
2026-05-07 13:28 37.02266 26.12391 37033 ft 418 kts 294°
2026-05-07 13:28 37.03391 26.09064 36372 ft 423 kts 294°
2026-05-07 13:28 37.04548 26.05642 35732 ft 429 kts 294°
2026-05-07 13:28 37.05718 26.02183 35190 ft 432 kts 293°
2026-05-07 13:29 37.06893 25.98700 34614 ft 435 kts 293°
2026-05-07 13:29 37.08073 25.95199 34053 ft 438 kts 293°
2026-05-07 13:29 37.09254 25.91691 33692 ft 435 kts 293°
2026-05-07 13:29 37.10428 25.88198 33172 ft 436 kts 293°
2026-05-07 13:30 37.11609 25.84684 32552 ft 438 kts 293°
2026-05-07 13:30 37.12792 25.81157 31976 ft 440 kts 293°
2026-05-07 13:30 37.13977 25.77621 31552 ft 439 kts 293°
2026-05-07 13:30 37.15164 25.74076 31076 ft 440 kts 293°
2026-05-07 13:31 37.16329 25.70588 30591 ft 425 kts 293°
2026-05-07 13:31 37.17455 25.67217 30090 ft 422 kts 293°
2026-05-07 13:31 37.18585 25.63833 29423 ft 418 kts 293°
2026-05-07 13:31 37.19698 25.60493 28742 ft 412 kts 293°
2026-05-07 13:32 37.20806 25.57163 27918 ft 409 kts 293°
2026-05-07 13:32 37.21894 25.53890 27126 ft 406 kts 292°
2026-05-07 13:32 37.22980 25.50620 26340 ft 404 kts 292°
2026-05-07 13:32 37.24036 25.47372 25582 ft 402 kts 291°
2026-05-07 13:33 37.25070 25.44111 24838 ft 400 kts 291°
2026-05-07 13:33 37.26100 25.40882 24236 ft 396 kts 291°
2026-05-07 13:33 37.27106 25.37771 24134 ft 383 kts 291°
2026-05-07 13:33 37.28055 25.34632 23611 ft 386 kts 288°
2026-05-07 13:34 37.28920 25.31383 22529 ft 393 kts 287°
2026-05-07 13:34 37.31474 25.25449 21068 ft 387 kts 308°
2026-05-07 13:34 37.33363 25.23050 20362 ft 385 kts 316°
2026-05-07 13:35 37.35376 25.20845 19629 ft 382 kts 316°
2026-05-07 13:35 37.37334 25.18697 19429 ft 366 kts 316°
2026-05-07 13:35 37.39243 25.16592 18706 ft 365 kts 316°
2026-05-07 13:35 37.41146 25.14486 18033 ft 362 kts 316°
2026-05-07 13:36 37.43027 25.12409 17349 ft 358 kts 316°
2026-05-07 13:36 37.44889 25.10355 16667 ft 354 kts 316°
2026-05-07 13:36 37.46711 25.08341 15986 ft 351 kts 317°
2026-05-07 13:36 37.48534 25.06324 15333 ft 348 kts 317°
2026-05-07 13:37 37.50339 25.04326 14874 ft 339 kts 317°
2026-05-07 13:37 37.52107 25.02369 14225 ft 336 kts 317°
2026-05-07 13:37 37.53827 25.00459 14037 ft 325 kts 316°
2026-05-07 13:37 37.55405 24.98413 13424 ft 326 kts 310°
2026-05-07 13:38 37.56844 24.96210 12720 ft 325 kts 309°
2026-05-07 13:38 37.58317 24.94056 12111 ft 322 kts 311°
2026-05-07 13:38 37.59826 24.92023 12025 ft 315 kts 313°
2026-05-07 13:38 37.61331 24.89976 12023 ft 321 kts 311°
2026-05-07 13:39 37.62830 24.87879 12023 ft 322 kts 311°
2026-05-07 13:39 37.64317 24.85794 12022 ft 322 kts 311°
2026-05-07 13:39 37.65824 24.83700 12019 ft 323 kts 311°
2026-05-07 13:39 37.67316 24.81630 11435 ft 319 kts 311°
2026-05-07 13:40 37.68818 24.79537 10808 ft 318 kts 311°
2026-05-07 13:40 37.70290 24.77483 10547 ft 305 kts 311°
2026-05-07 13:40 37.71635 24.75608 10328 ft 274 kts 311°
2026-05-07 13:40 37.72862 24.73897 10126 ft 254 kts 311°
2026-05-07 13:41 37.74023 24.72276 9593 ft 256 kts 311°
2026-05-07 13:41 37.75226 24.70593 8986 ft 260 kts 311°
2026-05-07 13:41 37.76456 24.68875 8405 ft 266 kts 311°
2026-05-07 13:41 37.77708 24.67124 7793 ft 270 kts 310°
2026-05-07 13:42 37.78978 24.65348 7224 ft 272 kts 310°
2026-05-07 13:42 37.80236 24.63591 7011 ft 263 kts 309°
2026-05-07 13:42 37.81467 24.61865 7015 ft 266 kts 309°
2026-05-07 13:42 37.82706 24.60122 7013 ft 265 kts 309°
2026-05-07 13:43 37.83944 24.58385 6681 ft 269 kts 310°
2026-05-07 13:43 37.85201 24.56627 6312 ft 269 kts 309°
2026-05-07 13:43 37.86452 24.54869 5943 ft 267 kts 309°
2026-05-07 13:43 37.87691 24.53130 5571 ft 265 kts 309°
2026-05-07 13:44 37.88919 24.51403 5199 ft 263 kts 309°
2026-05-07 13:44 37.90135 24.49694 5000 ft 257 kts 309°
2026-05-07 13:44 37.91344 24.47992 5006 ft 263 kts 309°
2026-05-07 13:44 37.92549 24.46293 5004 ft 263 kts 309°
2026-05-07 13:45 37.93771 24.44561 4936 ft 265 kts 308°
2026-05-07 13:45 37.94966 24.42787 4743 ft 264 kts 307°
2026-05-07 13:45 37.96147 24.41006 4537 ft 261 kts 306°
2026-05-07 13:45 37.97297 24.39235 4316 ft 260 kts 307°
2026-05-07 13:46 37.98446 24.37518 4116 ft 250 kts 307°
2026-05-07 13:46 37.99548 24.35881 3991 ft 238 kts 307°
2026-05-07 13:46 38.00612 24.34297 3983 ft 236 kts 307°
2026-05-07 13:46 38.01673 24.32699 3987 ft 238 kts 307°
2026-05-07 13:47 38.02748 24.31096 3963 ft 238 kts 307°
2026-05-07 13:47 38.03900 24.29532 4011 ft 256 kts 313°
2026-05-07 13:47 38.05141 24.27833 4007 ft 264 kts 308°
2026-05-07 13:47 38.06272 24.26148 3990 ft 241 kts 307°
2026-05-07 13:48 38.07326 24.24572 3986 ft 232 kts 307°
2026-05-07 13:48 38.08178 24.22899 3871 ft 225 kts 283°
2026-05-07 13:48 38.08485 24.20995 3783 ft 219 kts 276°
2026-05-07 13:48 38.08707 24.19088 3666 ft 219 kts 275°
2026-05-07 13:49 38.08923 24.17191 3529 ft 216 kts 275°
2026-05-07 13:49 38.09150 24.15327 3297 ft 209 kts 275°
2026-05-07 13:49 38.09369 24.13550 3061 ft 199 kts 275°
2026-05-07 13:49 38.09569 24.11853 2804 ft 190 kts 275°
2026-05-07 13:50 38.09633 24.10229 2478 ft 180 kts 252°
2026-05-07 13:50 38.08913 24.08993 2186 ft 174 kts 223°
2026-05-07 13:50 38.08057 24.07932 1978 ft 168 kts 223°
2026-05-07 13:50 38.07147 24.07106 1957 ft 157 kts 202°
2026-05-07 13:51 38.06130 24.06727 1993 ft 153 kts 195°
2026-05-07 13:51 38.05117 24.06360 2000 ft 149 kts 197°
2026-05-07 13:51 38.04252 24.05619 1986 ft 155 kts 219°
2026-05-07 13:51 38.03416 24.04720 1922 ft 154 kts 217°
2026-05-07 13:52 38.02565 24.03935 1823 ft 150 kts 214°
2026-05-07 13:52 38.01776 24.03191 1675 ft 138 kts 214°
2026-05-07 13:52 38.01025 24.02475 1489 ft 133 kts 215°
2026-05-07 13:52 38.00268 24.01741 1330 ft 138 kts 214°
2026-05-07 13:53 37.99511 24.01034 1159 ft 133 kts 214°
2026-05-07 13:53 37.98752 24.00398 1051 ft 133 kts 211°
2026-05-07 13:53 37.98003 23.99704 941 ft 133 kts 217°
2026-05-07 13:53 37.97261 23.99005 843 ft 132 kts 216°
2026-05-07 13:54 37.96537 23.98304 639 ft 126 kts 220°
2026-05-07 13:54 37.95855 23.97659 483 ft 121 kts 216°
2026-05-07 13:54 37.95140 23.96976 362 ft 136 kts 217°
2026-05-07 13:54 37.94434 23.96296 299 ft 111 kts 217°
2026-05-07 13:55 37.93922 23.95812 285 ft 73 kts 216°
2026-05-07 13:55 37.93645 23.95554 286 ft 38 kts 216°
2026-05-07 13:55 37.93500 23.95338 294 ft 23 kts 245°
2026-05-07 13:55 37.93459 23.95225 300 ft 10 kts 245°
2026-05-07 13:56 37.93436 23.95159 304 ft 7 kts 246°
2026-05-07 13:56 37.93419 23.95113 304 ft 0 kts 246°
2026-05-07 13:56 37.93419 23.95112 304 ft 0 kts 246°
2026-05-07 13:56 37.93414 23.95097 305 ft 3 kts 246°
2026-05-07 13:57 37.93400 23.95057 307 ft 6 kts 246°
2026-05-07 13:57 37.93386 23.95003 307 ft 5 kts 272°
2026-05-07 13:57 37.93401 23.94954 306 ft 7 kts 301°
2026-05-07 13:57 37.93433 23.94888 308 ft 10 kts 299°
2026-05-07 13:58 37.93435 23.94814 309 ft 7 kts 237°
2026-05-07 13:58 37.93400 23.94771 309 ft 7 kts 220°
2026-05-07 13:58 37.93357 23.94727 308 ft 8 kts 218°
2026-05-07 13:58 37.93339 23.94691 309 ft 3 kts 264°
2026-05-07 13:59 37.93347 23.94663 308 ft 6 kts 295°
2026-05-07 13:59 37.93358 23.94639 308 ft 3 kts 302°
2026-05-07 13:59 37.93369 23.94619 308 ft 1 kts 306°
2026-05-07 13:59 37.93370 23.94618 308 ft 0 kts 306°